{"data":{"norad_id":69165,"intl_designator":"2026-111T","name":"STARLINK-37445","alt_names":[],"object_type":"PAYLOAD","status":"ACTIVE","operator":null,"country":"US","launch_date":"2026-05-21","launch_site_code":"AFETR","launch_vehicle":null,"mission":null,"orbit_class":"UNKNOWN","rcs_meters":null,"size_class":null,"mass_kg":null,"dimensions":null,"purposes":["comms"],"wikipedia_slug":null,"has_3d_model":false,"image_url":null,"decayed_at":null,"tle_current":{"epoch":"2026-09-20T00:09:24.642144Z","epoch_age_seconds":69662,"freshness":"FRESH","line1":"1 69165U 26111T   26263.00653521  .00022019  00000+0  66086-3 0  9991","line2":"2 69165  53.1583  67.9862 0000870  96.2846 263.8256 15.34402473 18826","mean_motion":15.34402473,"eccentricity":8.7e-5,"inclination_deg":53.1583,"raan_deg":67.9862,"arg_perigee_deg":96.2846,"mean_anomaly_deg":263.8256,"bstar":0.00066086,"rev_number":1882,"period_min":93.847606826687,"perigee_km":462.10073747839,"apogee_km":463.29104240124,"semimajor_km":6840.8328899398,"source":"CELESTRAK","updated_at":"2026-09-20T09:00:44.092801Z"}}}